Terminal Aerodrome Forecast
Issued by NWS

Home | Current Version | Previous Version | Text Only | Print | Product List | Glossary On
Versions: 1 2 3 4 5 6 7 8 9 10 11 12 13 14 15 16 17 18 19 20 21 22 23 24 25 26 27 28 29 30 31 32 33 34 35 36 37 38 39 40 41 42 43 44 45 46 47 48 49 50
000
FTAK31 PANC 262328
TAFADQ
TAF
PADQ 262328Z 2700/2724 16008KT 6SM -SHRA BR SCT015 BKN030
      TEMPO 2700/2704 4SM -SHRA BKN015
     FM270600 13010G18KT 6SM BR VCSH SCT010 BKN030
     FM271200 11012G22KT 4SM -RA BR SCT008 OVC015
     FM272100 11015KT 6SM -SHRA BKN022=

USA.gov is the U.S. government's official web portal to all federal, state and local government web resources and services.